Wind_Speed
43 41 40 44 49 53 51 47 44 43 43 41 39 38 37 38 38 42 46 48 52 45 37 39 35 30 28 28 31 37 42 44 46 45 41 41 42 40 42 42 40 37 36 35 33 33 33 34 35 37 42 46 48 49 50 51 53 53 53 54 54 55 54 55 56 56 56 57 57 58 59 59 60 61 61 61 60 60 59 58 58 58 58 58 58 59
43 39 41 48 52 52 51 50 49 46 44 42 41 40 38 40 40 41 44 47 52 45 36 39 37 31 31 30 30 34 39 44 48 49 45 42 42 42 43 44 42 40 37 37 37 36 36 36 36 34 35 39 43 45 48 51 52 53 53 54 55 55 55 55 56 56 56 57 57 58 59 59 60 60 61 61 61 61 61 60 59 59 59 59 60 60
44 40 44 51 53 53 53 53 52 49 46 44 44 43 40 42 42 40 43 47 49 44 37 39 37 32 32 32 32 35 38 43 48 50 49 45 43 44 44 45 44 42 39 37 38 38 37 38 38 37 35 35 37 40 43 47 49 50 52 53 54 54 54 55 55 55 55 55 56 57 58 58 58 59 60 60 60 60 60 59 59 59 59 60 60 61
45 44 50 55 55 54 54 55 55 52 49 47 47 47 43 46 46 40 43 47 47 45 39 39 35 28 31 34 36 37 37 42 47 49 51 49 47 47 44 46 47 45 43 40 39 39 38 39 39 39 38 36 36 37 39 42 45 48 50 51 52 52 53 53 52 52 52 53 54 54 55 55 56 57 57 58 58 58 58 58 59 59 59 60 61 62
48 49 54 56 56 57 57 57 58 57 54 51 51 52 47 49 50 45 45 47 45 44 43 43 34 25 32 37 37 39 36 38 44 46 50 53 53 51 46 47 49 48 47 44 43 42 40 40 39 39 40 39 39 38 38 40 42 44 46 47 47 48 49 49 49 49 50 51 52 52 53 53 54 55 55 56 57 58 59 60 60 61 62 63 64 64
50 54 57 57 57 58 58 57 60 63 60 54 54 57 54 53 54 51 52 49 43 41 43 46 35 23 31 38 37 41 39 37 43 45 48 55 57 55 51 50 53 52 50 48 47 46 44 43 41 41 41 42 42 42 41 41 42 44 44 45 45 47 48 48 49 49 50 51 52 52 53 54 54 55 56 57 59 60 61 62 62 63 64 64 65 65
53 58 61 60 58 58 58 57 61 69 65 55 57 63 61 59 58 56 57 53 47 44 43 45 40 25 26 36 42 44 43 40 44 46 49 55 58 57 55 54 56 57 54 51 49 47 46 46 46 45 44 44 44 44 44 43 44 45 47 47 47 48 49 50 50 50 51 52 52 53 54 55 56 58 59 60 61 61 62 62 61 62 63 64 65 66
58 62 63 63 63 60 59 59 64 71 68 59 60 66 65 63 62 60 60 58 54 51 46 46 49 39 27 33 44 46 45 45 44 47 50 52 56 58 58 58 59 60 58 56 53 51 51 50 49 48 46 46 46 47 47 46 46 47 49 50 50 51 51 52 52 52 53 53 54 55 56 57 58 59 60 60 61 61 61 62 62 62 63 64 65 66
63 65 64 66 67 65 65 66 67 70 69 65 66 68 67 66 66 65 64 62 59 55 50 47 54 53 34 32 42 44 43 46 46 48 50 50 54 57 58 60 61 61 61 60 58 56 55 53 52 51 50 50 50 51 52 52 51 51 51 52 53 53 54 54 55 55 56 56 56 57 57 58 59 60 61 61 63 63 64 64 65 65 65 65 66 67
66 66 65 67 68 70 71 72 72 72 72 71 72 72 71 70 69 70 68 66 66 59 52 49 54 61 45 31 37 42 42 46 48 50 51 50 53 55 55 57 59 62 62 61 61 60 58 56 55 54 54 54 54 55 56 56 56 55 55 55 56 56 56 56 57 58 58 59 59 59 59 60 61 61 63 64 64 65 66 66 67 67 67 66 66 66
70 68 66 67 69 71 73 76 77 78 78 77 78 76 75 73 71 73 70 69 70 60 52 52 54 60 51 33 35 42 43 46 47 52 54 52 53 55 55 55 56 60 62 61 61 62 62 60 59 58 57 57 57 58 58 58 58 58 58 58 58 59 59 59 59 59 59 60 60 61 61 62 62 62 64 65 65 66 67 68 69 70 70 70 69 69
71 70 69 70 71 73 75 77 78 80 82 82 82 80 79 78 76 76 73 72 72 60 52 56 59 59 50 39 42 47 46 48 48 51 55 55 56 57 58 58 57 58 60 60 60 61 63 63 63 62 61 61 60 59 59 59 59 59 59 59 59 59 59 59 59 58 58 59 60 61 62 63 63 63 65 65 66 67 68 70 72 74 74 74 73 73
73 72 73 73 73 76 79 80 80 80 82 84 85 84 85 86 85 83 81 80 76 65 60 63 64 58 46 43 49 51 51 52 51 52 53 55 56 57 60 62 61 59 59 60 61 62 64 65 65 65 64 63 62 61 61 60 61 60 60 59 59 59 59 59 59 59 59 60 61 62 63 64 64 65 66 66 67 68 70 71 73 75 77 77 77 76
78 75 75 77 77 77 79 81 82 82 84 86 86 89 93 94 93 93 93 91 84 75 71 71 68 59 49 48 52 53 54 54 54 55 56 56 57 58 60 62 63 62 61 61 63 64 65 66 66 66 66 66 65 64 64 64 65 65 64 63 62 61 61 61 61 61 61 62 63 64 65 66 67 68 70 70 70 71 72 73 75 77 79 80 81 82
84 78 75 80 83 81 80 81 84 86 86 86 87 91 95 95 98 101 101 98 91 85 82 80 74 63 56 58 59 58 57 56 55 57 57 58 60 63 64 64 64 65 65 65 66 67 68 67 67 67 69 69 69 68 68 69 69 69 68 68 67 66 66 65 64 63 64 65 68 69 70 71 72 72 73 74 74 74 75 76 78 79 81 83 85 86
92 85 78 82 86 83 83 84 88 91 91 87 87 92 94 95 99 105 106 102 99 97 93 89 81 72 68 69 69 67 64 61 61 60 59 58 60 64 66 67 67 68 69 69 69 69 70 69 69 70 70 70 71 72 73 73 72 71 70 70 70 70 69 69 67 67 69 71 73 75 76 76 75 74 74 74 75 76 78 79 80 81 83 85 87 89
100 95 88 87 87 85 85 87 89 93 94 92 92 92 94 98 103 107 109 107 106 106 101 95 89 84 80 75 74 76 73 70 69 67 64 61 60 64 67 67 68 70 73 73 73 74 74 73 73 73 73 73 73 74 75 77 77 74 72 71 71 71 71 70 71 73 76 78 79 79 78 78 78 78 78 77 78 80 81 82 83 84 84 86 89 90
107 104 99 96 93 90 88 89 90 93 96 97 97 97 98 102 105 108 112 112 112 112 108 101 97 95 91 80 75 80 80 78 78 76 73 67 63 66 70 70 69 71 74 75 77 80 82 82 82 81 80 79 78 79 78 80 80 79 76 74 73 73 73 74 76 78 80 81 82 81 81 81 82 84 84 84 85 86 86 86 87 87 87 89 90 92
112 112 109 104 100 97 94 92 93 95 99 102 103 104 104 106 107 109 113 115 116 118 116 111 106 104 101 90 83 85 86 85 85 85 84 80 77 77 80 79 76 77 79 81 83 85 86 88 88 88 87 85 84 85 84 83 83 82 80 78 76 76 77 78 79 80 82 83 84 85 85 86 87 88 88 88 89 89 89 90 90 91 91 91 92 93
116 117 116 110 105 104 103 101 101 101 104 108 111 113 113 114 114 114 117 118 119 120 121 119 117 114 108 103 99 95 93 92 92 93 95 95 94 95 95 93 89 87 88 89 91 90 88 88 87 88 89 88 87 88 88 87 86 85 83 81 80 79 80 81 82 83 84 86 87 88 89 90 90 91 91 91 92 92 92 94 94 93 93 93 94 95
119 120 120 116 111 110 109 108 109 111 114 117 119 121 121 121 122 124 125 125 124 125 126 128 130 126 118 112 110 107 104 102 101 102 106 107 107 106 106 105 102 99 98 97 95 94 94 93 90 90 91 92 92 91 91 92 91 89 88 86 85 84 84 86 88 89 89 89 90 91 92 93 94 94 94 94 94 95 96 98 97 96 96 97 96 96
124 125 125 124 121 118 116 115 117 120 122 123 124 125 126 126 128 131 132 131 131 133 136 138 139 137 128 118 113 112 112 111 110 110 113 113 114 114 112 110 108 107 106 105 101 97 97 97 97 97 97 97 98 96 94 94 94 94 93 91 91 90 90 92 94 94 93 93 93 94 95 96 97 97 97 97 97 98 100 101 100 99 100 100 99 99
129 130 132 132 131 129 126 126 127 128 129 130 132 133 135 136 138 139 138 137 137 139 141 142 143 140 132 120 113 112 113 113 113 113 114 114 116 117 116 113 111 108 107 108 105 100 97 98 101 103 103 103 103 101 99 97 97 97 97 96 96 95 95 97 98 98 97 96 96 97 98 99 100 101 100 100 100 102 103 103 102 103 103 104 104 104
135 137 139 140 140 138 137 136 136 136 136 137 139 140 141 142 141 140 139 139 140 142 141 142 142 138 129 118 113 112 110 108 107 107 109 112 113 112 110 108 107 106 105 105 104 101 99 100 102 105 106 107 106 106 104 102 100 99 100 100 101 100 100 100 100 99 99 99 100 100 100 101 102 104 104 105 106 106 106 105 106 107 108 109 110 110
141 143 144 145 144 143 141 140 139 139 140 142 142 142 141 140 138 137 137 139 141 141 140 140 140 135 126 119 115 113 110 105 102 101 104 106 105 104 102 99 100 101 101 100 101 101 102 103 105 106 107 108 108 108 107 105 103 102 102 102 102 102 103 103 102 102 101 101 101 101 101 102 103 105 107 109 110 109 109 109 110 111 112 113 114 114
144 144 145 145 145 144 141 139 139 139 141 143 142 139 136 134 133 133 134 137 138 136 135 136 135 130 123 119 117 114 110 106 101 97 97 99 98 97 96 96 97 99 98 97 98 101 104 107 108 108 108 109 108 109 109 107 105 104 104 104 103 103 103 104 104 103 103 103 103 103 103 103 105 106 109 110 111 111 112 112 113 114 115 116 116 116
144 143 142 142 141 140 138 135 134 134 135 136 135 133 131 130 130 130 132 134 133 132 132 131 128 125 122 119 115 111 108 106 102 97 96 98 98 96 95 94 96 98 99 98 98 100 104 108 109 109 109 109 109 109 110 108 107 106 105 104 105 105 104 105 106 105 105 104 104 104 104 105 106 108 110 111 112 113 114 114 115 115 116 116 116 116
141 140 137 135 134 133 131 129 127 127 127 128 128 128 128 128 128 129 130 129 128 129 130 127 124 125 124 121 115 111 108 106 103 102 101 101 101 100 97 94 94 96 99 101 102 102 104 107 108 109 109 108 109 110 110 109 109 108 107 106 106 107 107 108 108 107 106 105 104 104 104 104 106 106 108 109 110 112 114 115 116 116 116 117 116 116
136 135 133 131 129 128 126 124 123 123 123 123 124 124 124 124 125 127 127 125 125 127 126 123 123 124 123 120 117 114 111 108 106 104 103 103 102 100 97 96 97 97 99 102 104 104 103 105 107 108 109 110 110 111 110 109 109 108 107 107 107 107 108 108 108 106 104 103 103 102 102 100 99 99 99 100 102 104 108 111 114 115 116 117 116 115
131 131 129 127 127 125 123 121 121 121 121 121 122 122 121 121 121 121 121 121 122 123 123 123 123 123 120 118 116 114 113 112 112 111 108 107 105 100 97 98 99 100 102 103 104 102 101 102 104 107 110 111 112 113 111 109 107 106 106 106 106 107 108 107 104 102 102 102 102 101 100 98 97 97 96 95 95 96 98 101 104 107 110 111 111 110
127 127 125 124 125 124 122 119 119 119 120 121 121 119 118 117 115 115 115 117 119 120 120 121 122 121 118 117 117 115 115 116 117 116 114 112 111 108 107 107 106 106 106 105 103 101 100 101 103 106 109 110 111 112 110 108 106 104 103 103 103 104 105 104 101 99 99 100 101 101 100 99 98 98 97 96 95 95 95 95 96 98 101 103 105 106
122 123 121 121 123 123 120 117 117 118 121 124 121 116 113 112 112 112 114 115 116 117 118 120 120 118 116 116 117 116 116 116 117 116 117 117 116 114 113 113 113 110 107 104 102 102 102 103 104 105 107 109 110 110 109 107 104 102 100 98 98 100 100 99 97 97 98 101 102 103 103 102 100 99 99 100 100 101 102 101 101 101 103 104 106 107
118 119 118 119 122 122 119 116 116 119 124 124 118 113 112 111 111 113 113 113 114 116 118 119 118 116 115 115 115 114 114 115 116 116 117 118 118 117 117 116 114 111 108 107 107 106 106 106 106 107 108 109 110 111 110 108 105 103 100 98 99 99 99 99 100 102 104 106 107 108 110 110 109 108 108 108 108 108 109 109 111 112 113 113 112 111
118 118 118 119 121 121 118 116 118 122 125 121 115 113 113 112 111 112 112 112 114 117 118 117 116 116 115 114 113 113 112 112 114 117 119 119 117 117 118 119 118 116 114 113 112 111 111 110 110 110 112 113 114 115 115 113 111 108 106 105 105 105 103 103 104 107 109 111 113 115 117 119 119 118 118 118 116 115 114 114 117 118 119 118 116 115
119 119 119 120 122 121 118 118 121 122 120 116 115 116 115 112 110 110 110 111 114 116 115 115 116 116 115 113 112 112 110 110 113 116 118 119 117 115 116 117 118 118 117 116 114 113 113 112 112 113 114 115 117 120 122 121 119 116 115 113 112 110 108 107 107 109 112 115 117 120 123 124 124 125 125 124 123 121 120 120 120 120 120 119 118 118
120 121 121 121 122 122 120 119 120 118 115 114 116 116 114 111 110 110 110 110 112 113 113 113 114 114 113 112 110 109 107 107 110 113 115 115 116 116 116 116 117 117 117 117 116 116 116 115 115 115 116 117 120 123 125 126 124 121 120 119 117 114 111 110 111 114 118 122 125 127 127 126 126 125 125 123 122 120 119 119 118 117 117 117 118 119
120 121 122 122 122 122 121 120 119 117 115 115 115 114 112 110 109 109 110 109 109 109 110 111 112 111 110 110 108 107 105 104 106 110 112 113 114 114 114 114 115 115 116 116 117 118 119 119 120 121 121 121 123 125 127 127 126 125 125 126 125 122 118 117 118 120 123 125 127 127 124 122 120 119 118 116 113 112 112 111 111 112 113 114 116 117
119 121 122 123 122 122 122 121 120 119 118 115 114 113 111 110 109 109 110 109 107 107 109 110 109 109 109 109 108 107 105 103 104 107 108 110 112 112 112 113 113 113 113 113 114 115 117 119 121 123 124 125 126 128 129 130 131 131 132 133 131 127 123 120 119 118 118 119 120 119 117 115 113 111 110 109 107 107 107 107 108 110 111 112 113 114
118 120 121 123 123 122 122 123 122 121 120 118 115 112 111 111 112 112 112 111 108 110 112 111 109 107 108 108 108 108 106 104 103 104 106 108 109 109 110 111 111 111 111 111 111 112 113 115 117 119 121 123 126 128 129 131 132 132 132 130 128 124 120 116 113 111 110 111 112 112 111 110 109 107 106 105 105 105 106 106 107 108 110 111 111 111
118 120 121 123 123 122 123 124 123 123 122 119 116 112 111 112 114 115 116 114 112 114 117 115 112 110 109 108 108 109 109 107 104 102 103 105 106 107 108 109 109 110 110 109 109 110 111 112 114 115 116 117 120 122 124 125 126 126 125 123 121 118 115 112 109 107 106 107 108 107 107 107 107 105 105 104 104 104 105 105 106 107 108 109 109 109
117 119 121 122 122 122 123 124 124 124 122 120 116 113 111 111 115 119 119 116 114 116 118 118 117 115 113 112 111 110 110 109 106 103 101 101 102 104 106 108 108 108 108 108 108 108 108 108 109 110 110 112 114 116 117 118 119 118 118 117 116 115 113 112 110 108 107 107 107 107 106 105 105 104 104 104 104 104 103 104 105 106 106 107 107 107
114 116 118 119 120 121 123 124 124 122 120 119 117 115 113 113 116 120 120 116 114 115 117 119 119 118 117 116 115 113 112 110 108 105 102 101 100 101 103 106 107 107 107 107 107 108 108 107 106 106 106 108 109 111 112 114 115 114 113 113 113 113 112 111 111 110 109 108 108 107 107 106 105 105 105 105 105 105 104 104 105 105 105 106 106 106
111 113 113 113 115 119 121 122 122 120 116 116 117 117 117 117 117 117 118 117 116 115 117 118 118 117 117 117 116 115 113 111 110 108 105 103 102 101 101 102 104 105 106 106 106 107 107 106 105 105 106 106 106 107 109 111 112 111 111 110 111 111 110 110 111 111 111 110 110 109 109 108 108 108 108 108 109 108 108 107 106 105 105 106 105 105
109 110 110 110 112 115 117 116 115 115 115 115 118 119 119 117 115 115 116 116 116 116 116 117 116 115 114 115 115 114 113 111 109 108 106 105 103 102 101 100 101 101 102 104 106 106 106 105 104 104 104 104 104 105 106 109 110 109 109 109 110 111 110 109 110 110 111 111 111 110 110 110 109 109 109 110 110 110 109 108 107 106 106 106 105 105
108 108 110 110 111 113 113 110 109 112 114 115 116 118 117 115 114 114 115 115 116 116 116 116 115 114 113 113 113 112 112 111 109 108 107 106 104 103 101 101 100 99 98 100 103 105 106 105 104 103 103 102 103 104 107 110 110 109 108 110 110 110 110 109 109 109 109 110 110 110 110 109 109 108 108 108 109 109 109 108 108 107 106 106 106 106
107 107 109 110 110 110 110 108 108 111 112 111 113 116 115 112 110 111 113 114 115 115 115 115 114 114 113 113 112 111 110 111 110 109 107 106 105 104 102 102 102 100 98 98 100 103 105 105 104 103 102 102 103 105 107 109 110 108 108 109 110 110 109 108 107 107 108 108 107 107 107 106 106 105 105 106 106 107 107 107 107 107 106 106 106 106
104 106 108 109 109 110 108 106 108 111 109 106 108 112 112 109 107 107 109 110 111 111 111 111 112 112 112 112 110 109 109 109 110 110 108 106 105 104 103 102 103 103 101 98 98 101 104 105 104 103 102 102 103 104 105 107 107 107 106 106 107 108 108 107 106 105 105 105 104 104 103 103 102 102 102 102 102 103 103 103 104 105 105 104 105 106
100 103 107 107 108 109 106 103 106 110 108 104 105 107 108 107 106 106 106 107 107 107 107 107 107 108 108 108 108 108 107 108 109 110 109 107 107 106 104 103 103 103 103 100 97 98 101 104 104 103 101 100 101 103 103 104 104 105 104 104 104 105 106 105 104 104 103 102 102 101 100 100 99 99 98 99 99 99 100 100 101 102 102 103 103 104
101 102 103 105 107 105 103 103 106 108 106 103 104 105 106 106 105 104 103 103 103 104 104 104 104 103 103 103 103 104 105 105 107 108 109 108 107 108 107 106 104 104 105 103 100 98 99 101 102 102 101 99 100 102 102 102 103 104 104 103 103 103 104 104 104 103 102 101 100 99 99 99 99 98 97 97 97 97 98 98 99 99 100 101 101 102
102 100 99 102 104 102 100 103 107 106 103 101 103 105 105 105 103 101 100 100 100 101 101 100 100 99 99 99 100 101 101 101 102 104 106 106 106 107 108 108 107 105 105 105 103 100 99 100 100 101 101 100 101 103 103 102 103 105 105 103 102 102 103 104 104 102 101 100 99 98 98 99 99 99 98 97 97 97 98 98 98 99 99 100 101 102
99 98 97 99 101 99 98 99 102 103 101 99 100 103 104 103 102 100 99 98 98 97 97 96 95 95 96 97 98 99 98 98 98 99 101 102 103 104 106 107 108 107 106 106 105 103 102 101 101 101 101 101 102 103 103 103 104 105 107 106 103 102 102 103 104 103 102 101 100 99 99 99 99 99 99 98 97 98 98 99 99 99 100 100 101 102
Wind_Direction
290 291 294 288 282 282 289 294 292 289 288 288 288 286 283 278 275 273 273 274 274 273 275 278 277 277 278 277 279 284 289 290 288 286 285 284 284 284 283 282 279 276 275 275 274 270 266 264 260 256 254 254 254 254 255 256 257 258 259 259 260 262 262 262 263 263 264 264 264 265 265 266 267 268 269 270 271 272 272 273 272 273 273 274 274 275
289 293 292 283 282 287 292 292 290 289 289 290 290 288 286 281 276 275 275 275 275 275 274 273 273 272 272 272 274 277 281 285 287 286 285 284 284 284 282 282 281 279 277 275 274 272 270 268 267 264 260 258 256 254 254 255 256 257 257 257 258 260 261 262 263 263 264 264 265 265 265 265 266 268 269 270 271 272 272 273 273 273 274 275 276 277
289 294 286 282 285 289 290 289 289 290 290 290 290 288 287 283 279 278 277 276 277 277 274 271 270 269 269 269 271 274 277 280 283 284 284 285 284 282 281 281 282 281 279 276 274 272 272 270 269 269 267 264 261 259 257 257 257 258 258 259 260 262 263 264 264 264 264 265 265 264 264 265 266 267 269 270 271 271 272 273 274 275 276 277 277 278
291 290 283 285 288 287 286 288 289 290 291 290 288 286 287 285 282 280 277 277 279 280 277 272 269 271 270 269 272 276 275 275 277 279 283 285 283 280 280 281 281 280 279 278 276 274 272 271 270 270 270 268 266 264 262 261 260 260 261 262 263 265 266 266 266 266 266 265 264 264 264 264 265 267 269 270 270 272 272 273 275 276 277 277 278 278
290 286 283 284 284 284 286 288 290 290 289 288 287 288 288 284 282 281 279 277 278 282 280 275 272 271 270 269 272 274 271 270 273 278 282 283 282 281 281 281 279 279 279 278 277 276 275 273 270 269 269 269 268 267 266 265 264 263 264 265 266 266 267 267 269 269 268 267 266 266 266 266 267 268 269 271 272 273 274 275 276 276 277 277 277 277
288 284 280 279 281 285 287 289 290 289 286 287 289 289 286 283 283 283 281 279 279 280 281 280 277 263 262 269 269 268 269 270 273 278 280 280 280 281 281 280 279 279 279 278 276 275 275 274 273 271 270 269 268 268 268 267 267 267 266 266 265 266 267 269 270 270 269 268 268 268 268 269 270 271 272 273 274 275 275 276 276 277 277 278 278 278
286 280 278 279 281 283 286 289 288 285 285 290 291 287 286 285 285 283 283 283 283 280 278 280 279 261 250 262 265 264 267 271 275 277 275 275 279 282 281 279 280 280 279 276 274 273 272 273 273 273 272 271 270 269 269 268 268 268 267 266 266 266 267 269 270 270 270 269 269 270 271 272 272 273 274 275 275 275 276 276 277 278 278 279 280 280
283 279 280 281 281 283 285 284 282 283 288 293 290 286 286 286 285 284 284 286 285 282 280 279 279 270 247 251 263 266 268 270 271 272 271 274 279 281 282 282 282 282 280 278 275 273 272 272 272 272 271 270 269 268 268 268 267 266 266 266 267 266 267 267 268 268 268 268 269 271 272 273 274 275 276 276 276 277 277 278 278 278 279 279 280 280
282 280 280 280 282 284 283 281 280 284 289 291 288 286 286 284 284 286 286 287 286 284 284 283 282 277 256 241 257 265 269 270 268 269 270 272 274 276 279 282 283 282 282 281 280 278 275 274 272 271 271 271 270 269 269 268 268 266 265 265 266 267 267 268 268 269 268 268 269 271 273 274 275 276 277 277 277 277 278 278 278 278 278 278 279 280
281 280 280 280 281 282 282 282 282 284 286 287 286 285 284 284 285 285 285 286 285 284 286 284 281 279 269 247 252 259 264 268 268 269 269 269 271 273 275 277 279 280 280 282 282 281 279 277 275 274 274 273 272 271 270 270 270 269 268 267 267 268 269 270 270 270 270 270 270 271 272 273 274 275 276 276 277 277 277 278 278 277 277 277 278 278
280 280 281 280 280 280 282 282 282 283 285 285 284 283 283 284 284 283 284 284 283 284 286 281 276 277 275 264 259 259 260 266 270 271 270 270 272 274 275 274 274 275 277 278 279 280 280 280 280 278 277 276 275 273 273 272 272 272 272 271 270 270 270 270 271 271 270 270 271 271 272 273 273 274 276 276 277 278 278 279 279 278 277 277 276 276
280 282 282 281 281 281 280 280 281 282 283 284 284 283 283 283 284 284 284 283 281 282 281 277 273 275 280 280 272 264 260 262 267 272 275 275 274 275 276 275 273 272 273 274 275 277 279 281 282 281 280 279 277 276 275 275 275 275 274 274 273 272 271 270 271 271 272 273 274 274 274 274 274 275 275 277 278 279 279 280 280 280 279 278 277 277
281 282 282 282 282 282 281 280 281 281 282 282 282 283 282 282 284 285 285 283 281 279 276 274 272 273 279 281 276 272 268 264 263 269 273 274 273 273 272 272 271 270 270 271 272 274 276 278 280 280 280 279 278 278 277 277 277 276 276 275 274 272 271 271 271 272 273 275 276 276 277 277 277 277 277 278 278 279 279 280 281 281 282 282 281 281
280 280 281 282 281 280 280 281 280 280 279 279 281 282 281 282 285 287 286 283 282 281 277 274 274 274 275 272 271 274 275 271 267 268 270 270 269 268 266 267 267 267 268 269 270 271 274 275 276 276 277 276 276 277 277 277 277 277 277 276 275 273 273 271 271 272 273 275 276 278 279 280 280 280 280 280 280 279 280 281 283 284 284 285 286 286
277 277 278 280 279 278 279 280 280 279 278 279 280 280 281 283 285 284 283 283 285 285 281 279 278 277 275 272 271 273 274 274 273 272 272 271 268 266 265 265 265 265 265 266 267 269 270 272 272 273 273 274 274 275 275 275 275 276 276 276 275 274 274 272 271 272 273 275 277 279 280 281 282 282 282 281 281 281 281 282 283 284 285 286 287 287
278 277 278 277 278 279 279 279 279 279 279 280 280 281 282 283 282 282 283 285 287 286 285 285 283 280 279 277 277 277 276 274 273 272 271 270 268 267 266 265 264 264 264 263 264 266 267 268 269 269 270 270 271 272 272 272 272 272 272 273 273 274 274 273 270 271 274 277 279 279 279 280 281 282 281 281 281 281 281 282 282 283 285 285 286 287
282 281 281 279 279 279 279 279 279 279 280 281 281 281 281 280 280 282 285 286 286 285 285 286 285 284 283 280 281 283 281 278 276 273 271 271 270 269 268 267 267 266 265 265 264 263 264 265 265 265 265 266 266 267 268 269 269 269 268 268 269 270 271 271 270 272 276 278 279 279 279 279 281 282 282 282 282 282 281 281 282 282 283 283 284 285
284 283 284 284 283 281 279 277 277 278 280 281 281 280 278 278 280 282 285 285 285 285 285 285 285 286 284 280 280 282 282 280 280 279 277 274 271 270 270 270 269 268 268 268 267 264 263 263 263 264 264 264 264 265 265 266 267 267 266 266 267 267 267 268 269 272 276 278 279 279 279 280 281 282 283 283 283 283 282 282 282 282 282 283 282 283
284 283 285 286 285 284 281 279 278 279 279 279 279 279 279 280 280 281 283 284 284 284 285 285 285 285 285 283 281 280 281 281 282 282 282 280 277 276 274 271 268 267 268 269 269 267 266 265 265 265 266 266 266 266 266 265 265 265 265 266 266 266 266 266 268 271 274 276 277 278 279 280 280 281 281 281 281 281 281 281 281 281 281 282 282 281
284 284 284 285 284 283 282 281 281 279 277 276 277 279 280 280 280 281 281 281 282 283 284 284 284 283 284 284 283 282 282 283 284 285 284 283 282 282 280 277 272 268 268 268 268 267 266 265 264 265 266 266 266 266 266 265 264 263 264 265 266 265 266 267 269 270 271 272 273 275 276 277 278 279 279 279 279 279 278 279 279 280 280 281 282 281
283 283 283 282 281 281 281 280 279 277 276 277 278 279 280 280 281 280 280 280 280 281 281 282 282 282 282 282 282 283 282 282 283 283 282 281 281 282 282 281 277 273 271 269 268 266 263 262 262 262 263 264 264 265 265 265 263 262 261 263 265 265 265 267 269 270 271 271 272 273 275 276 277 278 278 278 278 277 277 278 278 279 280 280 281 281
280 280 280 280 279 279 279 278 277 276 277 277 278 279 280 281 281 280 279 279 279 279 280 280 281 281 282 282 281 280 279 279 279 279 279 279 279 279 279 278 277 276 274 272 270 266 263 261 260 261 261 262 262 262 262 263 263 263 263 263 264 265 266 267 269 270 272 272 273 275 276 277 277 277 277 277 277 276 276 277 277 278 279 279 280 280
278 278 278 279 279 279 279 278 277 277 277 278 279 280 281 281 281 280 280 279 278 278 278 279 280 281 282 282 280 278 276 276 276 276 276 275 275 275 276 277 276 275 274 273 272 269 264 261 259 259 260 260 260 260 260 260 261 263 264 265 265 266 268 269 269 270 271 272 274 275 276 277 277 277 277 277 277 276 277 277 277 277 278 278 279 279
279 278 279 279 280 280 280 280 279 279 280 280 281 281 282 282 282 282 282 281 280 280 281 281 282 283 284 283 281 278 276 275 274 274 274 273 272 273 274 275 274 273 271 271 271 270 267 263 260 259 258 259 259 259 259 259 259 261 264 266 268 268 269 270 271 271 272 273 273 275 276 277 277 278 278 277 277 277 277 277 277 277 277 277 278 278
279 279 279 280 280 280 280 280 281 281 281 281 281 281 281 282 282 282 282 281 281 282 283 284 284 285 286 285 284 282 280 279 277 276 274 273 273 274 274 272 270 269 268 268 268 269 268 266 263 260 258 259 260 260 260 259 258 260 263 266 268 270 271 271 272 273 273 273 274 274 275 275 275 276 276 275 275 275 275 275 275 275 275 276 276 277
278 278 279 279 280 280 280 280 280 280 280 280 281 281 280 280 280 280 280 280 280 282 282 282 282 283 284 284 284 284 283 282 281 279 276 275 274 273 272 271 269 268 267 266 266 266 265 265 264 263 261 260 260 260 260 260 260 260 261 264 266 269 271 272 273 273 273 274 274 274 275 275 275 275 274 274 274 274 273 273 272 273 273 273 274 275
277 277 278 278 279 279 279 279 279 279 279 279 280 280 280 280 280 280 279 280 281 282 281 281 282 282 282 281 281 282 283 283 283 280 277 275 275 273 271 270 268 267 266 265 265 264 263 263 263 263 262 261 260 260 260 261 262 262 262 263 265 267 268 270 271 272 272 273 274 274 274 274 274 274 275 275 275 274 273 272 272 272 272 272 273 274
277 277 277 277 278 278 278 278 278 277 277 277 277 278 279 279 280 280 280 280 281 281 280 281 282 282 281 281 281 281 281 281 281 280 278 276 275 274 272 270 266 264 264 264 263 263 262 262 263 263 263 263 262 262 262 262 263 263 263 264 265 266 267 268 269 270 272 273 274 275 275 274 274 275 275 275 275 274 273 272 272 272 271 272 273 274
277 277 277 277 277 277 277 277 277 276 276 276 277 277 277 278 278 278 279 280 280 280 281 281 281 280 280 280 280 280 279 278 278 277 276 275 275 274 273 272 269 267 265 263 262 261 261 262 263 264 265 265 265 264 264 264 264 264 265 266 267 268 268 268 268 270 272 273 274 274 274 274 274 274 275 275 275 274 273 272 272 271 272 272 273 274
276 276 277 277 277 277 276 276 276 276 276 276 276 276 276 275 276 277 278 279 279 279 280 280 279 279 279 278 277 276 275 273 272 272 272 273 273 272 271 270 270 270 269 267 266 266 265 265 264 265 266 266 267 267 266 266 266 266 267 268 269 269 270 269 269 270 270 271 271 271 271 271 271 271 272 273 273 273 273 273 273 272 272 273 273 273
276 276 277 277 277 277 276 276 276 276 276 275 274 274 274 275 276 277 277 277 277 277 278 278 278 278 278 278 276 274 271 269 267 267 268 269 269 269 269 269 269 270 272 272 272 271 270 270 269 269 269 269 268 268 267 268 268 267 267 267 268 269 268 268 269 270 271 272 273 274 274 274 274 274 274 275 276 276 276 276 276 275 275 274 274 274
276 277 277 277 277 276 276 276 277 276 276 275 274 275 276 277 277 277 276 276 277 277 277 276 276 276 276 276 274 273 272 270 269 267 266 265 265 266 268 270 272 272 272 272 271 271 272 272 273 273 273 273 272 271 271 271 270 270 270 271 272 273 273 273 274 276 279 280 281 281 281 281 281 281 281 281 282 282 282 282 282 281 280 279 277 277
276 276 276 276 276 276 277 277 277 276 275 275 276 277 277 277 277 276 276 276 277 276 276 275 275 275 274 273 273 273 273 272 272 271 269 266 265 264 264 266 268 269 270 270 271 271 271 272 273 273 274 275 274 274 274 274 274 275 276 277 278 279 280 281 282 283 284 285 285 285 285 285 285 285 285 284 284 284 284 285 285 285 284 283 282 280
277 276 276 276 276 276 277 277 276 275 275 276 278 278 277 276 275 275 275 275 275 274 274 274 274 274 273 272 272 272 272 272 272 272 271 270 269 267 265 264 263 263 264 265 267 268 270 271 272 273 273 274 274 274 274 275 276 277 278 279 279 279 280 280 280 281 282 282 282 282 282 283 283 283 283 283 283 283 284 284 284 285 284 284 284 283
278 277 277 276 276 277 277 276 275 275 276 278 278 277 276 276 276 275 275 274 273 273 273 273 273 273 272 272 272 271 271 271 271 270 270 271 272 271 270 268 266 263 261 260 261 262 264 266 268 270 271 272 273 274 274 275 276 276 277 277 278 278 278 278 278 278 278 278 278 278 278 278 279 279 280 281 281 282 283 283 284 284 284 284 284 284
278 278 277 277 277 277 277 276 276 277 278 278 276 275 276 276 276 275 274 273 272 272 272 271 271 271 272 272 272 272 272 272 272 272 271 271 271 271 271 270 269 268 266 263 261 259 259 261 263 264 266 268 269 271 273 274 275 276 276 277 278 279 279 280 280 280 280 279 278 278 277 277 277 277 278 278 279 280 281 281 282 282 281 281 282 282
277 277 277 277 277 277 277 277 278 278 278 277 276 276 276 276 275 275 274 273 272 271 271 270 271 272 273 274 274 274 274 274 273 273 272 272 272 271 271 271 270 270 269 267 265 263 261 260 260 261 263 264 266 267 269 270 272 273 274 275 277 278 279 280 280 280 279 279 278 278 277 277 277 277 277 278 278 279 279 279 279 279 279 279 279 279
276 277 277 277 276 277 277 277 278 278 277 277 277 277 277 277 277 276 275 274 273 272 271 270 270 271 272 273 273 274 274 273 273 273 273 273 273 273 273 272 271 271 270 270 269 267 266 264 263 262 263 263 264 265 267 268 269 270 272 273 275 277 277 277 277 277 277 277 277 277 277 277 276 276 277 277 278 278 278 278 278 279 279 279 279 279
276 276 276 276 276 276 276 276 276 276 277 277 277 277 278 278 278 277 276 275 274 273 272 271 270 270 271 271 272 273 273 272 271 272 273 273 273 273 273 273 273 273 272 272 271 270 269 268 267 266 265 265 265 266 267 268 269 271 272 274 275 276 276 276 276 276 275 275 275 275 276 276 276 276 276 277 277 278 278 278 279 279 279 279 279 279
275 275 275 275 275 276 275 275 275 275 275 276 276 276 276 276 276 276 275 274 273 273 273 273 273 273 272 272 273 273 273 272 271 270 270 271 272 273 273 273 273 273 273 272 272 271 270 269 269 268 268 268 268 268 269 270 271 272 273 274 275 275 276 276 276 275 275 275 275 274 274 275 275 276 276 277 277 277 278 279 279 279 278 279 279 279
273 274 274 274 275 275 275 275 275 275 275 276 276 276 276 275 274 273 273 272 273 273 274 274 275 275 275 274 274 273 273 272 271 270 269 269 269 270 271 272 272 272 272 272 272 271 271 270 270 270 270 270 270 270 270 271 272 272 273 274 275 275 276 276 276 276 275 275 275 275 275 275 275 276 276 277 277 277 278 278 278 278 278 278 279 279
271 271 271 272 273 274 274 274 274 275 276 277 277 277 276 274 272 272 273 273 273 272 273 273 273 274 274 274 274 273 273 272 272 271 269 268 267 267 267 268 269 270 270 270 270 271 271 271 271 271 271 270 270 271 271 272 272 273 273 273 274 274 274 275 275 275 275 275 275 275 276 276 276 277 277 278 278 278 278 278 278 278 278 278 278 279
271 271 271 271 271 271 272 272 274 275 276 276 276 275 274 272 271 272 273 273 273 272 271 271 271 272 272 272 272 273 272 272 272 272 271 270 268 267 266 266 267 268 269 269 269 269 269 270 270 270 270 270 270 270 271 271 271 271 272 272 272 272 272 272 273 274 275 275 275 276 276 276 277 277 277 278 278 278 278 278 278 278 278 278 278 278
273 273 273 272 271 271 271 272 273 274 274 273 272 272 272 271 271 272 271 272 272 272 272 271 271 272 272 272 272 272 273 273 273 272 272 271 270 269 267 266 265 265 266 267 268 268 268 268 268 268 269 269 269 270 270 270 269 270 270 270 270 270 270 271 271 272 272 273 273 274 274 274 275 275 275 276 277 277 277 278 278 278 278 278 278 278
275 275 274 274 273 272 272 272 272 272 271 271 271 271 271 271 271 271 271 271 271 271 272 272 272 272 272 272 272 272 273 273 273 273 272 272 272 271 270 269 267 266 265 266 267 268 268 268 268 267 267 268 268 269 269 269 269 269 270 270 270 270 270 270 270 270 271 271 271 272 272 273 273 274 274 275 275 276 276 277 277 277 277 278 278 278
276 276 276 275 275 274 274 274 273 271 271 271 271 271 271 271 271 271 270 270 270 270 270 271 271 271 271 271 271 272 272 272 272 272 272 272 272 272 271 271 270 268 267 266 266 267 268 268 267 267 267 267 267 267 268 269 269 270 270 270 271 271 271 270 270 270 271 271 271 271 272 272 273 273 274 274 274 275 275 276 276 276 276 277 277 277
276 277 276 276 275 275 274 274 274 273 272 272 272 272 272 272 272 271 270 270 270 270 270 270 270 271 271 271 271 271 271 271 271 272 271 271 271 271 270 270 270 270 269 267 266 266 267 267 267 267 267 267 267 267 267 268 269 269 269 269 270 271 271 271 271 271 271 271 271 271 272 272 273 273 273 273 274 274 274 274 275 275 275 276 276 276
276 275 275 275 275 275 275 275 274 274 273 273 272 272 272 272 271 271 271 271 271 271 270 270 270 270 270 270 271 271 271 270 270 271 271 271 271 271 270 270 270 270 270 269 267 266 266 267 268 268 268 268 269 269 268 268 269 269 269 269 269 270 270 270 270 270 270 271 271 271 271 271 271 271 271 272 272 272 273 273 274 275 275 275 275 275
275 273 273 274 274 275 276 275 274 273 273 273 273 272 272 271 271 270 270 271 271 271 271 271 271 271 271 271 270 270 270 270 270 270 270 270 270 271 271 270 269 269 270 269 268 267 266 267 267 268 269 269 269 268 268 268 268 269 269 269 269 269 269 269 269 269 269 269 270 270 270 271 271 270 270 270 271 271 271 271 272 273 273 274 274 274
273 273 273 273 273 273 273 273 273 273 273 273 273 273 272 272 272 272 272 271 271 271 271 272 272 272 272 272 271 270 269 269 268 269 269 269 269 269 269 270 269 269 269 269 268 267 266 266 266 266 266 267 267 267 267 268 268 269 269 268 267 267 268 269 269 268 268 269 269 269 269 270 270 270 270 270 269 269 270 270 270 270 270 271 272 272
274 274 272 271 271 270 270 270 271 272 273 273 273 273 274 274 274 274 273 273 272 272 272 272 272 272 272 272 271 270 269 268 267 267 267 267 267 267 267 267 268 268 268 267 267 266 265 265 265 265 265 265 265 265 266 266 267 268 268 268 266 266 266 267 269 269 269 269 269 269 269 269 269 270 270 269 269 269 269 269 269 269 269 269 269 270
Height
10753 10755 10756 10749 10739 10735 10738 10744 10745 10744 10744 10746 10747 10747 10747 10746 10745 10741 10737 10734 10729 10738 10747 10745 10746 10749 10747 10744 10738 10733 10728 10724 10721 10724 10728 10727 10725 10726 10724 10723 10724 10727 10727 10727 10727 10727 10727 10726 10726 10727 10727 10726 10727 10726 10726 10725 10725 10725 10724 10722 10721 10720 10720 10720 10720 10719 10719 10719 10719 10718 10718 10717 10716 10715 10714 10714 10715 10715 10715 10715 10715 10713 10712 10710 10709 10708
10748 10753 10750 10740 10734 10734 10736 10736 10736 10739 10739 10740 10741 10741 10741 10739 10738 10737 10733 10729 10725 10733 10744 10740 10741 10746 10743 10742 10738 10732 10728 10721 10715 10715 10719 10722 10722 10720 10718 10717 10718 10720 10721 10722 10721 10721 10722 10721 10721 10721 10722 10721 10721 10721 10720 10718 10718 10718 10717 10716 10715 10714 10714 10713 10713 10713 10713 10713 10713 10712 10712 10711 10710 10709 10708 10708 10708 10708 10708 10708 10707 10706 10705 10704 10702 10701
10746 10750 10741 10731 10731 10731 10730 10728 10728 10732 10733 10735 10734 10734 10736 10732 10732 10734 10729 10724 10722 10728 10737 10735 10737 10742 10740 10738 10735 10728 10726 10720 10711 10708 10710 10715 10717 10715 10713 10712 10712 10713 10715 10716 10716 10716 10716 10716 10715 10715 10715 10716 10715 10714 10713 10712 10712 10711 10710 10709 10709 10708 10708 10707 10707 10707 10707 10707 10706 10706 10705 10705 10704 10703 10702 10702 10702 10701 10701 10701 10700 10699 10698 10697 10696 10695
10744 10743 10733 10726 10727 10725 10724 10722 10721 10724 10727 10728 10725 10725 10730 10726 10724 10729 10725 10720 10720 10723 10728 10729 10733 10739 10737 10733 10730 10723 10721 10716 10708 10704 10704 10707 10708 10708 10709 10708 10706 10707 10708 10710 10710 10710 10711 10710 10710 10710 10709 10710 10709 10708 10707 10706 10706 10705 10704 10704 10704 10703 10702 10701 10701 10701 10701 10700 10700 10700 10699 10699 10698 10697 10696 10696 10695 10695 10695 10694 10694 10693 10692 10690 10689 10688
10738 10733 10726 10722 10719 10718 10719 10717 10714 10714 10719 10721 10717 10717 10722 10719 10715 10721 10720 10717 10719 10719 10719 10720 10729 10738 10732 10728 10726 10717 10713 10712 10706 10703 10702 10699 10698 10700 10704 10703 10701 10701 10702 10704 10705 10704 10705 10704 10705 10705 10704 10703 10703 10702 10702 10701 10700 10700 10699 10699 10699 10698 10697 10696 10696 10696 10695 10695 10694 10694 10693 10693 10692 10691 10690 10690 10689 10689 10688 10688 10687 10687 10685 10684 10683 10681
10731 10722 10715 10715 10714 10712 10713 10713 10708 10701 10707 10717 10713 10707 10710 10710 10709 10712 10711 10712 10718 10719 10714 10710 10720 10732 10729 10724 10720 10709 10707 10709 10704 10702 10698 10692 10690 10694 10697 10697 10694 10695 10697 10698 10699 10699 10698 10698 10699 10699 10699 10698 10697 10696 10696 10695 10694 10694 10693 10693 10693 10692 10691 10691 10691 10690 10690 10689 10689 10688 10687 10686 10685 10684 10684 10683 10683 10682 10681 10681 10681 10680 10679 10677 10676 10675
10724 10712 10704 10706 10708 10708 10708 10709 10702 10686 10694 10714 10710 10698 10698 10701 10701 10702 10702 10705 10711 10714 10713 10708 10710 10721 10727 10721 10712 10704 10705 10707 10702 10698 10692 10685 10685 10687 10689 10690 10688 10687 10690 10692 10693 10693 10693 10693 10693 10693 10693 10692 10691 10690 10689 10689 10689 10688 10687 10686 10686 10686 10685 10685 10685 10684 10684 10684 10683 10682 10681 10680 10679 10678 10677 10677 10676 10675 10674 10674 10673 10673 10672 10670 10669 10668
10712 10705 10701 10698 10698 10702 10704 10701 10692 10678 10685 10705 10701 10691 10691 10691 10691 10693 10693 10696 10702 10706 10709 10706 10701 10708 10721 10718 10705 10702 10704 10704 10699 10691 10686 10682 10681 10680 10680 10682 10682 10680 10680 10684 10686 10687 10688 10687 10687 10687 10687 10686 10685 10684 10683 10683 10682 10682 10681 10680 10680 10679 10679 10679 10678 10678 10677 10677 10677 10676 10674 10673 10672 10671 10670 10669 10668 10667 10666 10665 10665 10664 10663 10662 10661 10660
10700 10698 10699 10694 10692 10695 10694 10689 10684 10677 10680 10690 10688 10684 10685 10683 10683 10684 10684 10688 10691 10696 10703 10703 10694 10692 10708 10714 10703 10702 10703 10698 10694 10687 10682 10681 10677 10676 10676 10674 10674 10673 10672 10674 10676 10678 10680 10681 10680 10680 10680 10679 10678 10677 10676 10675 10675 10675 10675 10674 10674 10672 10672 10672 10671 10671 10670 10670 10669 10668 10666 10665 10664 10663 10662 10660 10659 10658 10658 10657 10656 10656 10655 10655 10653 10652
10690 10690 10693 10691 10689 10686 10683 10679 10676 10673 10673 10677 10675 10675 10676 10675 10677 10675 10677 10679 10679 10688 10696 10695 10686 10678 10693 10709 10703 10700 10698 10690 10687 10683 10679 10678 10673 10672 10674 10672 10669 10667 10666 10667 10666 10666 10667 10670 10672 10672 10672 10671 10670 10669 10668 10668 10667 10667 10667 10667 10667 10666 10665 10665 10664 10663 10662 10662 10661 10659 10658 10657 10656 10655 10653 10652 10651 10650 10649 10648 10647 10646 10646 10646 10646 10644
10681 10682 10686 10686 10682 10679 10676 10671 10668 10665 10664 10663 10663 10665 10666 10666 10668 10665 10669 10670 10667 10680 10689 10683 10676 10670 10682 10701 10698 10693 10691 10685 10682 10677 10674 10675 10672 10669 10668 10668 10666 10662 10660 10661 10660 10657 10656 10658 10660 10662 10663 10662 10661 10660 10659 10660 10659 10659 10659 10659 10659 10658 10658 10657 10656 10655 10654 10654 10652 10651 10650 10649 10648 10647 10645 10643 10642 10641 10640 10639 10637 10636 10636 10636 10636 10636
10674 10675 10677 10675 10673 10671 10667 10663 10662 10659 10655 10651 10650 10654 10654 10655 10658 10656 10660 10659 10657 10672 10680 10670 10665 10665 10678 10692 10688 10684 10683 10680 10678 10674 10671 10671 10669 10667 10662 10660 10661 10658 10655 10655 10654 10651 10649 10648 10649 10651 10652 10652 10651 10651 10650 10651 10650 10650 10650 10650 10650 10649 10649 10648 10647 10646 10645 10644 10643 10642 10641 10640 10640 10639 10636 10635 10634 10632 10630 10629 10627 10625 10624 10625 10625 10625
10669 10670 10667 10666 10666 10661 10654 10653 10655 10653 10647 10642 10642 10645 10642 10642 10646 10646 10647 10645 10647 10662 10667 10658 10656 10663 10678 10682 10676 10675 10674 10672 10672 10670 10668 10667 10665 10663 10657 10652 10652 10652 10650 10648 10647 10646 10643 10642 10642 10642 10642 10642 10641 10641 10641 10641 10641 10641 10641 10641 10641 10640 10640 10639 10638 10637 10636 10635 10633 10632 10632 10632 10631 10630 10628 10627 10626 10623 10621 10619 10617 10614 10613 10612 10613 10613
10659 10663 10661 10656 10655 10652 10646 10645 10644 10642 10639 10636 10638 10637 10629 10630 10634 10631 10629 10628 10635 10649 10651 10646 10649 10661 10674 10672 10666 10666 10665 10664 10664 10662 10661 10660 10658 10656 10651 10647 10645 10644 10644 10642 10641 10640 10637 10636 10635 10635 10634 10633 10633 10633 10632 10632 10631 10631 10631 10631 10631 10631 10631 10631 10629 10628 10627 10625 10624 10623 10624 10623 10622 10621 10619 10618 10617 10615 10613 10611 10608 10605 10602 10600 10599 10598
10644 10654 10661 10648 10639 10642 10642 10637 10632 10628 10628 10631 10633 10626 10618 10623 10620 10607 10605 10612 10624 10633 10634 10634 10641 10655 10665 10661 10658 10659 10657 10657 10656 10653 10652 10650 10647 10645 10643 10641 10639 10637 10637 10635 10634 10633 10631 10629 10628 10627 10625 10624 10624 10624 10622 10622 10621 10621 10621 10621 10621 10621 10621 10621 10620 10619 10617 10615 10615 10615 10614 10613 10612 10611 10610 10609 10607 10606 10604 10601 10599 10596 10592 10589 10586 10584
10626 10641 10656 10643 10631 10634 10633 10628 10621 10613 10614 10622 10623 10616 10613 10615 10602 10585 10586 10598 10605 10608 10617 10625 10629 10641 10652 10649 10648 10649 10648 10648 10645 10642 10641 10640 10638 10636 10635 10635 10632 10631 10629 10627 10627 10624 10623 10622 10620 10618 10616 10615 10615 10613 10612 10611 10610 10612 10612 10612 10611 10610 10611 10610 10609 10608 10606 10606 10606 10605 10604 10603 10602 10601 10600 10599 10597 10596 10593 10591 10590 10587 10583 10579 10574 10571
10606 10619 10638 10635 10627 10628 10623 10617 10613 10603 10600 10605 10608 10607 10604 10598 10587 10578 10575 10581 10583 10580 10596 10615 10619 10624 10633 10636 10638 10637 10635 10635 10632 10630 10630 10630 10631 10628 10626 10627 10625 10622 10619 10617 10618 10614 10612 10612 10609 10608 10607 10606 10606 10604 10602 10600 10599 10601 10602 10602 10602 10601 10601 10600 10598 10597 10596 10595 10595 10594 10593 10592 10592 10591 10589 10588 10586 10584 10582 10580 10578 10576 10574 10570 10565 10561
10587 10591 10610 10620 10616 10616 10614 10608 10604 10599 10592 10589 10589 10591 10589 10582 10578 10574 10565 10564 10565 10559 10569 10592 10606 10610 10614 10623 10631 10626 10622 10623 10620 10619 10620 10619 10621 10619 10615 10616 10616 10613 10608 10606 10605 10602 10600 10599 10597 10597 10596 10596 10595 10593 10593 10591 10589 10590 10590 10591 10592 10592 10592 10590 10589 10588 10585 10584 10583 10582 10582 10581 10580 10579 10578 10576 10574 10572 10570 10567 10565 10564 10562 10559 10555 10551
10570 10564 10580 10602 10603 10598 10598 10597 10595 10593 10586 10576 10571 10572 10573 10571 10570 10568 10557 10550 10550 10544 10546 10562 10580 10591 10600 10611 10618 10613 10609 10611 10610 10609 10608 10605 10605 10604 10601 10602 10604 10601 10597 10593 10590 10588 10588 10586 10585 10585 10583 10584 10582 10579 10581 10581 10579 10578 10578 10579 10580 10580 10580 10579 10579 10578 10575 10573 10571 10570 10571 10570 10568 10567 10565 10564 10562 10560 10557 10554 10552 10551 10549 10547 10543 10540
10558 10547 10551 10577 10589 10582 10580 10584 10584 10580 10573 10564 10559 10558 10560 10561 10559 10556 10549 10542 10539 10533 10530 10535 10543 10562 10586 10599 10601 10601 10600 10599 10599 10597 10593 10589 10587 10586 10583 10583 10586 10587 10583 10578 10575 10576 10575 10572 10572 10572 10569 10569 10568 10567 10568 10568 10567 10567 10566 10567 10568 10567 10568 10567 10566 10566 10564 10562 10560 10559 10558 10557 10555 10553 10552 10551 10549 10547 10544 10541 10539 10538 10536 10534 10531 10528
10547 10539 10534 10549 10565 10567 10570 10572 10568 10562 10557 10551 10549 10548 10548 10549 10547 10540 10533 10532 10532 10523 10518 10516 10511 10527 10563 10583 10587 10591 10589 10586 10587 10584 10576 10572 10570 10570 10568 10565 10566 10568 10565 10561 10561 10561 10560 10559 10559 10558 10556 10554 10553 10554 10555 10552 10552 10554 10555 10555 10555 10556 10557 10556 10553 10552 10551 10549 10547 10547 10545 10543 10541 10540 10539 10537 10536 10534 10530 10527 10527 10525 10524 10522 10519 10515
10533 10529 10523 10527 10539 10549 10556 10558 10552 10548 10544 10539 10536 10535 10535 10534 10531 10522 10515 10518 10520 10509 10503 10500 10489 10497 10534 10562 10571 10575 10574 10571 10572 10568 10563 10560 10556 10551 10549 10548 10549 10550 10547 10542 10542 10544 10545 10546 10545 10542 10540 10538 10536 10538 10540 10539 10538 10539 10541 10542 10542 10544 10545 10543 10540 10539 10538 10537 10535 10534 10531 10529 10528 10527 10525 10524 10522 10520 10516 10514 10514 10513 10511 10508 10506 10503
10518 10512 10509 10511 10518 10526 10534 10537 10535 10532 10531 10527 10523 10521 10518 10514 10511 10504 10499 10502 10501 10490 10486 10484 10474 10478 10511 10540 10548 10549 10552 10553 10553 10551 10547 10544 10540 10534 10530 10529 10530 10532 10529 10524 10523 10527 10529 10529 10527 10524 10522 10519 10518 10520 10523 10526 10527 10527 10528 10528 10529 10530 10531 10527 10525 10526 10526 10525 10523 10520 10518 10516 10514 10511 10510 10509 10507 10505 10502 10501 10501 10499 10496 10494 10492 10490
10498 10491 10490 10493 10496 10502 10509 10512 10513 10513 10512 10507 10503 10501 10495 10490 10490 10484 10479 10478 10470 10464 10468 10466 10454 10462 10493 10516 10518 10519 10526 10531 10534 10534 10528 10520 10519 10518 10515 10512 10509 10510 10510 10507 10506 10509 10509 10508 10506 10504 10502 10500 10500 10502 10505 10511 10515 10516 10515 10514 10513 10514 10514 10511 10509 10510 10511 10511 10509 10508 10506 10504 10500 10496 10495 10493 10490 10489 10488 10488 10486 10484 10481 10479 10477 10474
10478 10472 10472 10473 10473 10478 10486 10490 10493 10494 10488 10479 10478 10480 10477 10473 10472 10466 10461 10456 10443 10442 10453 10446 10432 10446 10474 10486 10486 10490 10497 10503 10510 10512 10504 10497 10500 10501 10498 10494 10491 10489 10490 10492 10491 10490 10488 10485 10483 10482 10483 10483 10483 10484 10487 10494 10500 10503 10502 10501 10500 10499 10497 10494 10493 10494 10495 10495 10495 10494 10494 10491 10487 10484 10480 10476 10475 10475 10474 10473 10471 10468 10466 10464 10461 10459
10460 10458 10457 10457 10454 10457 10466 10472 10477 10475 10465 10455 10454 10458 10459 10457 10454 10450 10445 10436 10427 10433 10440 10428 10420 10435 10455 10461 10462 10468 10472 10476 10485 10487 10478 10475 10480 10482 10479 10476 10474 10472 10474 10476 10476 10472 10467 10463 10461 10462 10463 10464 10466 10468 10470 10476 10483 10487 10488 10488 10487 10485 10481 10478 10477 10478 10478 10479 10479 10479 10478 10476 10473 10469 10465 10462 10461 10460 10458 10456 10454 10452 10450 10447 10445 10444
10439 10439 10442 10443 10438 10439 10446 10452 10458 10456 10446 10440 10438 10438 10438 10437 10435 10433 10425 10418 10419 10420 10414 10411 10415 10421 10428 10437 10445 10453 10455 10455 10462 10464 10456 10455 10458 10459 10460 10458 10456 10456 10458 10459 10457 10452 10446 10443 10443 10443 10443 10447 10451 10452 10454 10459 10463 10467 10471 10472 10471 10470 10469 10465 10463 10463 10463 10463 10463 10463 10463 10461 10457 10453 10450 10448 10446 10444 10441 10439 10437 10435 10433 10431 10429 10428
10419 10417 10424 10427 10423 10424 10428 10430 10436 10435 10427 10425 10424 10422 10422 10420 10417 10414 10406 10406 10410 10399 10388 10401 10410 10399 10398 10411 10424 10435 10440 10438 10441 10441 10435 10434 10436 10437 10439 10440 10438 10439 10441 10440 10437 10432 10428 10426 10426 10427 10428 10432 10434 10434 10437 10441 10443 10447 10452 10454 10453 10452 10453 10451 10449 10450 10451 10450 10449 10448 10446 10444 10441 10439 10437 10434 10431 10428 10425 10422 10421 10419 10416 10414 10414 10412
10403 10396 10404 10408 10404 10408 10411 10411 10415 10414 10409 10410 10408 10407 10410 10409 10403 10398 10393 10395 10396 10382 10376 10389 10391 10380 10383 10395 10403 10412 10420 10421 10422 10420 10415 10414 10416 10419 10420 10419 10417 10420 10422 10418 10414 10413 10413 10413 10414 10413 10413 10415 10415 10416 10420 10423 10427 10431 10433 10434 10435 10435 10434 10433 10435 10438 10437 10435 10434 10431 10429 10428 10427 10425 10421 10418 10415 10412 10409 10407 10405 10403 10401 10400 10399 10397
10387 10377 10387 10390 10382 10385 10391 10393 10396 10394 10391 10391 10389 10389 10391 10390 10390 10388 10385 10386 10382 10370 10368 10371 10366 10364 10374 10381 10385 10393 10398 10398 10397 10397 10398 10400 10401 10403 10403 10397 10395 10398 10399 10396 10395 10400 10403 10405 10404 10401 10399 10398 10397 10398 10401 10406 10411 10416 10417 10418 10419 10418 10416 10416 10420 10423 10421 10418 10416 10413 10412 10413 10412 10409 10406 10402 10399 10396 10394 10392 10390 10388 10387 10385 10384 10382
10371 10364 10373 10374 10361 10360 10371 10376 10375 10374 10370 10366 10366 10370 10373 10374 10377 10378 10375 10372 10366 10358 10359 10357 10347 10347 10358 10363 10364 10368 10370 10369 10371 10377 10384 10386 10386 10386 10383 10378 10376 10379 10381 10382 10385 10389 10391 10392 10391 10389 10385 10383 10380 10380 10383 10388 10393 10397 10400 10404 10403 10401 10398 10399 10403 10405 10402 10398 10395 10393 10393 10394 10393 10391 10389 10386 10383 10380 10378 10376 10375 10374 10373 10371 10368 10366
10358 10352 10356 10356 10342 10339 10352 10358 10356 10354 10346 10337 10342 10355 10362 10363 10363 10361 10357 10356 10352 10347 10345 10341 10332 10333 10342 10343 10339 10340 10343 10344 10348 10356 10363 10366 10368 10370 10368 10365 10364 10366 10369 10371 10375 10377 10377 10376 10376 10373 10369 10366 10362 10361 10362 10366 10371 10374 10380 10385 10385 10382 10381 10383 10386 10386 10382 10379 10376 10374 10373 10373 10372 10373 10372 10370 10367 10365 10363 10361 10360 10358 10357 10355 10353 10350
10345 10339 10338 10337 10324 10321 10333 10339 10338 10334 10319 10312 10330 10347 10350 10348 10346 10342 10340 10340 10339 10334 10325 10319 10316 10318 10320 10319 10320 10324 10328 10329 10330 10333 10334 10338 10347 10354 10356 10356 10356 10357 10357 10357 10358 10361 10362 10361 10360 10358 10355 10352 10348 10344 10343 10345 10349 10354 10360 10364 10364 10364 10367 10369 10370 10369 10367 10364 10361 10359 10357 10355 10356 10358 10357 10355 10353 10351 10350 10350 10347 10344 10342 10339 10337 10334
10325 10323 10321 10318 10309 10305 10316 10322 10316 10306 10296 10302 10323 10332 10328 10328 10330 10325 10325 10326 10322 10315 10308 10303 10299 10296 10296 10300 10305 10310 10315 10318 10317 10311 10306 10310 10321 10330 10335 10339 10342 10345 10346 10345 10345 10346 10346 10346 10346 10345 10342 10339 10335 10330 10327 10328 10332 10337 10341 10343 10345 10349 10353 10357 10358 10358 10356 10353 10351 10348 10345 10342 10342 10343 10341 10340 10338 10337 10337 10336 10334 10331 10328 10323 10320 10317
10301 10301 10299 10299 10293 10288 10299 10303 10290 10283 10290 10301 10308 10306 10303 10308 10311 10308 10309 10310 10302 10294 10293 10292 10283 10276 10277 10282 10287 10291 10298 10305 10303 10293 10289 10293 10298 10304 10310 10314 10319 10323 10328 10331 10332 10333 10333 10333 10333 10333 10330 10326 10321 10316 10311 10312 10316 10321 10324 10325 10328 10332 10336 10341 10345 10346 10344 10342 10339 10335 10330 10328 10327 10327 10326 10325 10323 10323 10323 10321 10319 10315 10311 10307 10304 10301
10279 10278 10276 10276 10274 10270 10276 10280 10269 10269 10284 10288 10282 10282 10286 10290 10291 10289 10290 10290 10282 10277 10278 10275 10267 10264 10264 10264 10269 10275 10282 10288 10286 10277 10276 10279 10280 10283 10289 10292 10295 10298 10303 10308 10313 10315 10317 10318 10318 10319 10318 10315 10309 10303 10298 10297 10300 10304 10306 10307 10310 10314 10319 10323 10326 10328 10328 10325 10321 10315 10312 10311 10310 10310 10310 10309 10309 10309 10308 10306 10304 10300 10296 10293 10290 10287
10261 10259 10256 10255 10255 10253 10254 10256 10255 10257 10264 10264 10261 10263 10268 10270 10271 10271 10269 10267 10265 10262 10260 10256 10253 10254 10253 10251 10254 10258 10264 10271 10269 10262 10261 10263 10262 10264 10269 10273 10276 10278 10280 10284 10288 10293 10297 10299 10301 10302 10303 10302 10298 10292 10287 10285 10285 10288 10289 10290 10293 10299 10304 10307 10308 10309 10308 10305 10300 10294 10292 10292 10293 10293 10293 10293 10294 10295 10293 10291 10289 10286 10282 10279 10277 10274
10248 10243 10239 10234 10234 10237 10236 10235 10237 10239 10239 10242 10246 10246 10247 10250 10253 10251 10248 10245 10245 10243 10238 10239 10242 10242 10241 10239 10239 10241 10246 10252 10251 10248 10246 10246 10245 10246 10249 10252 10255 10258 10261 10263 10266 10271 10274 10277 10281 10283 10284 10285 10283 10279 10275 10273 10271 10272 10273 10275 10279 10283 10287 10290 10291 10291 10290 10287 10282 10277 10275 10275 10276 10276 10277 10277 10278 10278 10277 10275 10273 10270 10266 10263 10261 10259
10234 10229 10225 10217 10215 10221 10220 10214 10218 10221 10218 10220 10228 10234 10235 10234 10232 10230 10226 10223 10223 10219 10212 10215 10223 10226 10225 10226 10225 10224 10227 10232 10237 10238 10233 10229 10230 10231 10231 10232 10234 10237 10241 10244 10246 10249 10252 10254 10257 10260 10263 10265 10264 10262 10260 10258 10256 10256 10258 10260 10263 10265 10266 10268 10271 10272 10272 10270 10266 10262 10261 10259 10259 10260 10261 10262 10262 10260 10260 10259 10256 10254 10251 10247 10246 10244
10219 10214 10209 10202 10198 10204 10203 10195 10196 10200 10198 10200 10211 10220 10224 10220 10214 10209 10202 10201 10203 10198 10191 10194 10201 10204 10206 10209 10209 10209 10207 10209 10217 10225 10224 10220 10218 10216 10215 10216 10217 10218 10220 10222 10224 10227 10230 10233 10235 10238 10241 10243 10244 10243 10242 10241 10240 10241 10241 10242 10244 10245 10245 10246 10250 10253 10253 10251 10248 10247 10246 10244 10243 10244 10245 10245 10245 10244 10243 10242 10240 10237 10235 10233 10231 10230
10207 10200 10192 10185 10184 10187 10184 10176 10175 10178 10179 10183 10192 10200 10206 10206 10197 10184 10176 10182 10188 10184 10178 10178 10180 10181 10184 10187 10190 10191 10190 10188 10193 10202 10208 10210 10210 10207 10203 10201 10201 10202 10203 10204 10204 10206 10209 10212 10214 10217 10220 10221 10222 10222 10221 10221 10222 10223 10224 10225 10225 10226 10226 10226 10229 10231 10232 10232 10230 10229 10230 10230 10229 10228 10228 10228 10228 10227 10227 10226 10224 10221 10219 10218 10216 10215
10193 10186 10181 10178 10174 10170 10164 10157 10156 10161 10167 10170 10172 10177 10182 10182 10174 10163 10158 10165 10173 10171 10165 10162 10161 10161 10163 10165 10167 10169 10171 10172 10173 10178 10185 10191 10194 10196 10193 10189 10187 10188 10189 10190 10190 10189 10189 10193 10195 10197 10201 10202 10202 10202 10202 10201 10202 10204 10207 10209 10208 10207 10209 10209 10208 10209 10211 10212 10212 10212 10212 10212 10212 10211 10211 10210 10209 10209 10209 10209 10208 10206 10203 10202 10201 10200
10174 10168 10169 10172 10165 10153 10147 10145 10142 10147 10158 10160 10152 10150 10152 10151 10151 10151 10148 10147 10149 10149 10148 10145 10144 10144 10145 10146 10147 10149 10152 10155 10157 10159 10163 10167 10171 10176 10179 10179 10177 10176 10175 10175 10175 10174 10175 10178 10180 10180 10181 10183 10185 10185 10185 10184 10184 10186 10189 10190 10188 10188 10192 10193 10191 10191 10192 10193 10193 10194 10193 10194 10195 10194 10194 10192 10191 10191 10192 10192 10192 10191 10188 10186 10186 10186
10154 10150 10149 10152 10149 10138 10133 10137 10139 10137 10140 10141 10132 10125 10125 10129 10133 10135 10132 10130 10129 10127 10126 10126 10127 10129 10128 10128 10130 10132 10135 10139 10141 10142 10145 10147 10149 10153 10157 10161 10162 10163 10163 10161 10158 10158 10159 10161 10165 10165 10165 10166 10168 10169 10168 10166 10167 10169 10171 10170 10168 10169 10172 10175 10175 10175 10176 10175 10175 10176 10176 10177 10178 10179 10178 10177 10175 10174 10174 10175 10175 10175 10174 10172 10171 10170
10132 10134 10127 10124 10125 10120 10116 10125 10132 10123 10117 10117 10112 10106 10107 10113 10117 10116 10113 10113 10112 10109 10107 10107 10109 10113 10112 10111 10113 10116 10119 10121 10122 10124 10126 10128 10130 10132 10134 10137 10140 10142 10146 10146 10143 10141 10141 10143 10146 10149 10150 10152 10152 10150 10149 10147 10147 10151 10152 10150 10149 10150 10153 10155 10157 10158 10158 10157 10157 10158 10158 10160 10161 10162 10162 10161 10159 10158 10157 10158 10158 10158 10158 10157 10155 10154
10113 10114 10106 10099 10101 10099 10099 10108 10109 10099 10098 10103 10096 10086 10088 10097 10101 10099 10095 10093 10092 10091 10092 10092 10092 10095 10096 10095 10097 10101 10104 10104 10104 10105 10108 10110 10113 10115 10116 10116 10117 10118 10122 10127 10126 10124 10123 10125 10127 10130 10132 10135 10134 10132 10132 10130 10129 10133 10135 10133 10131 10132 10133 10136 10138 10139 10138 10138 10139 10139 10140 10143 10145 10145 10145 10143 10142 10142 10141 10141 10141 10141 10141 10141 10140 10137
10101 10095 10083 10081 10082 10077 10080 10091 10085 10071 10079 10091 10081 10069 10070 10077 10081 10081 10076 10074 10073 10074 10076 10077 10076 10076 10078 10079 10082 10085 10089 10090 10087 10086 10090 10093 10096 10099 10100 10099 10099 10098 10099 10103 10104 10105 10106 10107 10108 10110 10113 10116 10116 10114 10114 10115 10115 10117 10118 10117 10116 10115 10115 10117 10119 10120 10120 10120 10121 10122 10124 10126 10127 10128 10127 10127 10126 10125 10125 10125 10124 10124 10124 10124 10123 10121
10089 10078 10066 10065 10064 10058 10063 10075 10067 10051 10056 10068 10064 10057 10056 10056 10059 10060 10058 10057 10058 10058 10059 10061 10059 10059 10062 10065 10067 10068 10072 10074 10071 10069 10071 10075 10077 10079 10081 10082 10083 10081 10081 10081 10082 10084 10086 10088 10090 10092 10095 10099 10100 10097 10097 10099 10100 10099 10099 10100 10100 10100 10100 10101 10102 10103 10103 10104 10104 10106 10107 10109 10110 10111 10111 10111 10110 10110 10111 10110 10109 10108 10108 10107 10105 10103
10064 10061 10058 10050 10045 10047 10052 10051 10041 10033 10040 10048 10044 10040 10038 10036 10038 10042 10043 10043 10043 10042 10042 10043 10044 10045 10048 10051 10052 10051 10053 10056 10056 10053 10053 10057 10060 10060 10060 10061 10064 10065 10065 10064 10063 10064 10067 10071 10073 10075 10078 10082 10081 10078 10078 10081 10082 10080 10080 10081 10083 10083 10084 10085 10086 10087 10088 10088 10089 10090 10091 10092 10093 10094 10095 10096 10096 10096 10097 10096 10095 10094 10093 10091 10089 10087
10036 10043 10050 10038 10028 10036 10041 10030 10017 10017 10027 10034 10027 10018 10017 10019 10020 10024 10028 10028 10027 10027 10027 10029 10032 10033 10033 10034 10034 10034 10035 10038 10040 10038 10037 10039 10042 10043 10041 10041 10043 10046 10048 10046 10045 10047 10049 10051 10053 10056 10059 10062 10061 10059 10061 10064 10064 10064 10063 10063 10065 10066 10066 10066 10068 10070 10073 10074 10074 10075 10076 10076 10077 10078 10079 10081 10081 10081 10082 10082 10081 10080 10079 10078 10077 10074
10021 10025 10029 10020 10014 10019 10023 10018 10009 10005 10010 10018 10014 10003 10000 10001 10002 10006 10009 10009 10010 10012 10014 10016 10019 10020 10018 10016 10015 10014 10016 10021 10024 10023 10022 10023 10024 10025 10025 10024 10023 10026 10028 10026 10026 10028 10031 10032 10033 10036 10040 10043 10043 10043 10046 10048 10049 10048 10045 10044 10045 10048 10049 10049 10050 10053 10056 10058 10058 10059 10060 10061 10063 10063 10063 10065 10065 10065 10066 10066 10066 10066 10066 10066 10064 10061